[[{"header":{"parameterUnit":"m.s-1","parameterCategory":1,"la1":30.2991,"la2":30.254,"lo1":-89.0895,"lo2":-89.0444,"dy":0.0017,"dx":0.0017,"nx":28,"ny":28,"refTime":"2023-10-09T03:00:00:Z","depth":0,"parameterNumber":2,"parameterNumberName":"U-component_of_WINDS"},"data":[0,0,0,0,0,0,0,0,0,0,0,0,0,0,0,0,0,0,0,0,0,0,0,0,0,0,0,0,0,0,0,0,0,0,0,0,0,0,0,0,0,0,0,0,0,0,0,0,0,0,0,0,0,0,0,0,0,0,-0.6126,-0.6126,0,-0.6118,-0.6118,-0.6118,-0.6076,-0.6075,-0.6074,-0.6073,-0.6065,-0.6066,-0.6067,0,0,0,0,0,0,0,0,0,0,0,0,0,-0.6107,-0.6108,-0.6126,-0.6126,-0.6126,-0.6118,-0.6118,-0.6118,-0.6076,-0.6075,-0.6073,-0.6072,-0.6065,-0.6066,-0.6067,0,0,0,0,0,0,0,0,0,0,0,0,0,-0.6109,-0.6108,-0.6126,-0.6104,-0.6102,-0.6118,-0.6118,-0.6118,-0.6076,-0.6075,-0.6073,-0.6072,-0.6065,-0.6066,-0.6067,-0.6104,0,0,-0.6071,-0.6071,0,0,0,0,0,0,0,0,-0.6109,-0.611,-0.6107,-0.6106,-0.6103,-0.6096,-0.6109,-0.6113,-0.6076,-0.6086,-0.6073,-0.6071,-0.6077,-0.6077,-0.6079,-0.6104,-0.6104,-0.6071,-0.6071,-0.6072,-0.6072,0,0,0,0,0,0,0,-0.6109,-0.611,-0.6123,-0.6107,-0.6105,-0.6095,-0.6094,-0.6109,-0.609,-0.6085,-0.6082,-0.6081,-0.6076,-0.6078,-0.6078,-0.6104,-0.6071,-0.6072,-0.6072,-0.6073,-0.616,-0.6162,0,0,0,0,0,0,-0.6112,-0.611,-0.6123,-0.6123,-0.6102,-0.6097,-0.6095,-0.61,-0.609,-0.6087,-0.6083,-0.6079,-0.6077,-0.6077,-0.6078,-0.6121,-0.6072,-0.6073,-0.6073,-0.6158,-0.616,-0.6162,0,0,0,0,0,0,-0.6111,-0.6113,-0.6124,-0.6116,-0.6116,-0.6099,-0.6105,-0.6101,-0.6103,-0.6088,-0.6085,-0.6088,-0.6076,-0.6076,-0.6098,-0.612,-0.6073,-0.6074,-0.6156,-0.6159,-0.6161,-0.6208,0,0,0,0,0,0,-0.6111,-0.6113,-0.6127,-0.6116,-0.6117,-0.6144,-0.6106,-0.6102,-0.6105,-0.6101,-0.6093,-0.609,-0.6074,-0.6097,-0.6099,-0.6121,-0.6075,-0.6154,-0.6158,-0.616,-0.6204,-0.6211,-0.6218,0,0,0,0,0,-0.611,-0.614,-0.6128,-0.6129,-0.6133,-0.6145,-0.6145,-0.6127,-0.6107,-0.612,-0.6111,-0.609,-0.6118,-0.6099,-0.6102,-0.6124,-0.6153,-0.6157,-0.616,-0.6201,-0.621,-0.6218,0,0,0,0,0,0,-0.6154,-0.6138,-0.6124,-0.6151,-0.615,-0.6138,-0.6154,-0.6137,-0.6141,-0.6137,-0.6114,-0.6112,-0.6138,-0.6133,-0.6113,-0.616,-0.6132,-0.6136,-0.6162,-0.617,-0.6177,-0.6177,-0.6076,0,0,0,0,0,-0.6167,-0.6177,-0.6163,-0.6189,-0.6189,-0.6172,-0.6176,-0.6162,-0.616,-0.6159,-0.6151,-0.615,-0.6158,-0.6164,-0.6171,-0.6204,-0.6202,-0.622,-0.6227,-0.6233,-0.6237,-0.6254,-0.6262,-0.6174,-0.6174,-0.6174,0,0,-0.6193,-0.6186,-0.6194,-0.6197,-0.6194,-0.6206,-0.6171,-0.6185,-0.6194,-0.6161,-0.6181,-0.6176,-0.6173,-0.62,-0.6212,-0.6197,-0.6261,-0.6238,-0.6242,-0.6243,-0.6259,-0.6267,-0.6275,-0.6177,-0.6176,-0.6176,0,0,-0.6247,-0.6243,-0.6263,-0.6261,-0.6257,-0.6246,-0.6252,-0.6242,-0.6237,-0.6257,-0.6233,-0.6244,-0.6258,-0.6258,-0.6259,-0.6315,-0.6295,-0.6318,-0.6353,-0.637,-0.6377,-0.6383,-0.6403,-0.641,-0.6322,-0.6322,-0.6322,0,-0.628,-0.6296,-0.6276,-0.6292,-0.6294,-0.6265,-0.6287,-0.6286,-0.6285,-0.6287,-0.6271,-0.629,-0.6286,-0.6313,-0.6327,-0.6329,-0.6334,-0.6318,-0.6378,-0.6383,-0.6389,-0.6407,-0.6415,-0.6325,-0.6324,-0.6324,-0.6324,0,-0.6337,-0.6349,-0.6367,-0.6366,-0.6371,-0.6389,-0.6372,-0.638,-0.6366,-0.6357,-0.6378,-0.6373,-0.6378,-0.6384,-0.637,-0.641,-0.6401,-0.6382,-0.6352,-0.64,-0.6417,-0.6424,-0.6328,-0.6327,-0.6327,-0.6326,0,0,-0.6416,-0.6406,-0.6412,-0.6412,-0.6406,-0.6415,-0.6433,-0.6439,-0.6445,-0.6446,-0.646,-0.6475,-0.6457,-0.6459,-0.6446,-0.6461,-0.6505,-0.644,-0.6439,-0.6452,-0.6548,-0.6562,-0.6571,-0.6493,-0.6494,-0.6495,-0.6548,0,-0.6468,-0.6496,-0.648,-0.6511,-0.6522,-0.6496,-0.6511,-0.651,-0.6503,-0.6511,-0.6503,-0.6514,-0.649,-0.6491,-0.6505,-0.6497,-0.6524,-0.6493,-0.6506,-0.6507,-0.6507,-0.6579,-0.6594,-0.6644,-0.6555,-0.6556,-0.6557,0,-0.653,-0.6534,-0.6566,-0.6559,-0.6564,-0.6578,-0.6582,-0.659,-0.6589,-0.6583,-0.6586,-0.6569,-0.6586,-0.6559,-0.6583,-0.6562,-0.6567,-0.6564,-0.6566,-0.6565,-0.6534,-0.6581,-0.6659,-0.6667,-0.6567,-0.6566,-0.6566,0,-0.6585,-0.6598,-0.6619,-0.6619,-0.6612,-0.6623,-0.662,-0.6617,-0.6622,-0.6626,-0.6629,-0.6635,-0.6638,-0.6644,-0.663,-0.6611,-0.6656,-0.6627,-0.6651,-0.6652,-0.6661,-0.666,-0.6741,-0.6666,-0.6666,-0.6666,-0.6665,0,-0.6643,-0.6664,-0.6643,-0.6656,-0.6679,-0.666,-0.6684,-0.6679,-0.6676,-0.6688,-0.6667,-0.6679,-0.666,-0.667,-0.6659,-0.6681,-0.6683,-0.6678,-0.6675,-0.668,-0.668,-0.6682,-0.6678,-0.6668,-0.6667,-0.6667,-0.6666,0,-0.6706,-0.6693,-0.6714,-0.6706,-0.6705,-0.6722,-0.6715,-0.6727,-0.6719,-0.6734,-0.6737,-0.6724,-0.6735,-0.6722,-0.6732,-0.6725,-0.6755,-0.6747,-0.6755,-0.6752,-0.6777,-0.6775,-0.6861,-0.6872,-0.679,-0.6791,-0.6792,0,-0.6744,-0.6759,-0.6753,-0.6759,-0.6758,-0.6768,-0.6773,-0.6756,-0.6762,-0.6762,-0.6775,-0.6784,-0.679,-0.681,-0.6802,-0.681,-0.6801,-0.6831,-0.6802,-0.6807,-0.6801,-0.68,-0.6801,-0.6836,-0.6837,-0.6838,-0.6839,0,-0.6811,-0.6804,-0.6812,-0.6818,-0.6824,-0.6828,-0.683,-0.6836,-0.6819,-0.6827,-0.6838,-0.6843,-0.6854,-0.6863,-0.6869,-0.6867,-0.685,-0.6848,-0.6854,-0.6859,-0.6863,-0.686,-0.677,-0.6846,-0.6845,-0.6845,-0.6844,-0.6844,-0.6862,-0.6875,-0.6873,-0.6882,-0.6882,-0.6885,-0.6896,-0.6889,-0.6898,-0.6905,-0.6895,-0.6909,-0.6909,-0.6915,-0.6915,-0.6926,-0.6913,-0.6922,-0.6924,-0.6927,-0.693,-0.6862,-0.6927,-0.6927,-0.6927,-0.6927,-0.6927,0,-0.6928,-0.6926,-0.6935,-0.6939,-0.6946,-0.693,-0.6932,-0.694,-0.6952,-0.6953,-0.696,-0.6973,-0.6983,-0.6976,-0.6985,-0.6995,-0.6988,-0.6998,-0.6996,-0.6996,-0.6941,-0.6935,-0.7004,-0.7004,-0.7004,-0.7004,-0.7004,-0.7004,-0.6964,-0.6984,-0.6978,-0.6999,-0.6996,-0.7009,-0.7012,-0.7015,-0.7015,-0.7031,-0.7039,-0.7035,-0.7033,-0.7041,-0.705,-0.7048,-0.7052,-0.7065,-0.706,-0.7008,-0.7,-0.6993,-0.6987,-0.7066,-0.7066,-0.7114,-0.7114,-0.7115]},{"header":{"parameterUnit":"m.s-1","parameterCategory":1,"la1":30.2991,"la2":30.254,"lo1":-89.0895,"lo2":-89.0444,"dy":0.0017,"dx":0.0017,"nx":28,"ny":28,"refTime":"2023-10-09T03:00:00:Z","depth":0,"parameterNumber":3,"parameterNumberName":"V-component_of_WINDS"},"data":[0,0,0,0,0,0,0,0,0,0,0,0,0,0,0,0,0,0,0,0,0,0,0,0,0,0,0,0,0,0,0,0,0,0,0,0,0,0,0,0,0,0,0,0,0,0,0,0,0,0,0,0,0,0,0,0,0,0,2.3773,2.3773,0,2.3749,2.3748,2.3748,2.3787,2.3788,2.3789,2.3791,2.376,2.3758,2.3756,0,0,0,0,0,0,0,0,0,0,0,0,0,2.3849,2.3848,2.3773,2.3773,2.3773,2.3749,2.3748,2.3748,2.3786,2.3788,2.379,2.3791,2.3761,2.3758,2.3756,0,0,0,0,0,0,0,0,0,0,0,0,0,2.3819,2.3847,2.3773,2.3789,2.379,2.3749,2.3748,2.3748,2.3786,2.3788,2.379,2.3792,2.3761,2.3758,2.3755,2.3696,0,0,2.3746,2.3744,0,0,0,0,0,0,0,0,2.3821,2.3817,2.3787,2.3788,2.3789,2.3773,2.3764,2.373,2.3785,2.3787,2.3791,2.3793,2.3762,2.3759,2.375,2.3694,2.3693,2.3746,2.3744,2.3742,2.3741,0,0,0,0,0,0,0,2.3823,2.3818,2.3763,2.3787,2.3788,2.3796,2.3794,2.3758,2.3763,2.3787,2.379,2.3787,2.3763,2.3753,2.3749,2.3692,2.3746,2.3743,2.3741,2.374,2.3586,2.3584,0,0,0,0,0,0,2.3824,2.3819,2.3764,2.3763,2.3811,2.3793,2.3791,2.3776,2.3764,2.3764,2.3785,2.3789,2.3757,2.3753,2.3749,2.3678,2.3742,2.3739,2.3738,2.3589,2.3586,2.3584,0,0,0,0,0,0,2.3825,2.3819,2.3765,2.3792,2.3786,2.379,2.3773,2.3774,2.3764,2.3763,2.3763,2.3774,2.3759,2.3753,2.3709,2.3677,2.3738,2.3735,2.3591,2.3588,2.3585,2.3535,0,0,0,0,0,0,2.3827,2.3819,2.3797,2.3791,2.3784,2.3727,2.3771,2.3772,2.3759,2.3764,2.3752,2.3752,2.376,2.3713,2.3706,2.3674,2.3733,2.3594,2.359,2.3586,2.354,2.3531,2.3523,0,0,0,0,0,2.383,2.3783,2.3796,2.3789,2.3757,2.3725,2.3721,2.3732,2.3757,2.3734,2.3733,2.3752,2.3682,2.3708,2.37,2.3667,2.3596,2.3591,2.3586,2.3543,2.3532,2.3523,0,0,0,0,0,0,2.3783,2.3782,2.3797,2.3747,2.3736,2.3732,2.3704,2.372,2.3701,2.3705,2.3719,2.3716,2.3668,2.3664,2.3693,2.3609,2.3643,2.3636,2.3613,2.3603,2.3595,2.3596,2.373,0,0,0,0,0,2.3767,2.3743,2.3743,2.3699,2.3693,2.3699,2.3686,2.3696,2.3684,2.3679,2.3675,2.3662,2.3637,2.362,2.3597,2.354,2.3537,2.3513,2.3505,2.3498,2.3491,2.346,2.3449,2.3567,2.3567,2.3567,0,0,2.3734,2.373,2.3714,2.3689,2.3682,2.3655,2.3695,2.3664,2.3644,2.3674,2.3632,2.3629,2.3615,2.3564,2.3542,2.3559,2.3458,2.3491,2.3486,2.3483,2.3454,2.3443,2.3433,2.3564,2.3564,2.3565,0,0,2.3658,2.3654,2.3617,2.3609,2.3599,2.3603,2.3594,2.3588,2.3587,2.3547,2.3569,2.3544,2.3501,2.349,2.3479,2.3401,2.3417,2.3393,2.3348,2.3318,2.3309,2.3301,2.3272,2.3262,2.3387,2.3387,2.3387,0,2.3617,2.3579,2.3595,2.3563,2.3551,2.358,2.3541,2.3533,2.3514,2.3505,2.3525,2.3472,2.3464,2.3411,2.3393,2.3383,2.3372,2.3393,2.3309,2.3301,2.3294,2.3266,2.3256,2.3384,2.3384,2.3384,2.3385,0,2.3528,2.3501,2.3472,2.3456,2.3441,2.3406,2.3416,2.3398,2.341,2.3412,2.337,2.3363,2.3339,2.3327,2.3337,2.3275,2.3286,2.3308,2.3342,2.3279,2.3254,2.3244,2.3379,2.338,2.3381,2.3382,0,0,2.3421,2.3415,2.3404,2.3397,2.3388,2.3367,2.3333,2.3312,2.3296,2.3283,2.3254,2.3218,2.3238,2.3225,2.3235,2.3208,2.3146,2.3233,2.3233,2.3216,2.3077,2.306,2.3048,2.3158,2.3156,2.3155,2.3078,0,2.3345,2.3288,2.3302,2.3245,2.322,2.3248,2.3218,2.3209,2.321,2.3188,2.3189,2.3163,2.3192,2.3184,2.316,2.3159,2.3118,2.3165,2.3129,2.3128,2.3131,2.3034,2.3016,2.2944,2.3068,2.3066,2.3065,0,2.3249,2.3234,2.3175,2.3171,2.3161,2.3134,2.3116,2.3095,2.3085,2.3088,2.3074,2.3089,2.3054,2.3091,2.3043,2.3074,2.3061,2.3058,2.3056,2.3051,2.3091,2.3026,2.2921,2.2909,2.305,2.3051,2.3052,0,2.3175,2.314,2.3101,2.3094,2.3088,2.3069,2.3065,2.3057,2.3044,2.3027,2.3018,2.2997,2.2985,2.2968,2.2977,2.3003,2.2927,2.2964,2.2927,2.2926,2.2908,2.2908,2.2797,2.2901,2.2902,2.2902,2.2902,0,2.3088,2.305,2.3067,2.3043,2.3002,2.3018,2.2976,2.2976,2.2968,2.2943,2.2965,2.2941,2.2954,2.2931,2.2937,2.2896,2.289,2.289,2.2892,2.2888,2.2887,2.2878,2.2882,2.2899,2.29,2.29,2.2901,0,2.2997,2.3008,2.2966,2.2965,2.2964,2.2934,2.2932,2.2908,2.2913,2.2881,2.2874,2.2879,2.2853,2.286,2.2831,2.2835,2.2782,2.2791,2.2786,2.2788,2.275,2.2753,2.2627,2.2611,2.2727,2.2726,2.2725,0,2.2941,2.2913,2.291,2.2896,2.2891,2.2867,2.2854,2.2869,2.2854,2.2841,2.2819,2.2795,2.2776,2.2732,2.2733,2.271,2.2718,2.2676,2.2714,2.2711,2.2716,2.2717,2.2714,2.2667,2.2666,2.2665,2.2664,0,2.2838,2.2845,2.2826,2.2809,2.2793,2.278,2.2769,2.2755,2.277,2.2752,2.2726,2.2711,2.2683,2.2658,2.2638,2.2632,2.2649,2.2652,2.2642,2.2636,2.2634,2.2634,2.2764,2.2654,2.2655,2.2656,2.2656,2.2657,2.2762,2.2739,2.2733,2.2712,2.2705,2.2694,2.2673,2.2675,2.2654,2.2633,2.2643,2.2613,2.2603,2.2579,2.2571,2.2547,2.2563,2.2548,2.2544,2.254,2.2535,2.2639,2.2543,2.2544,2.2544,2.2544,2.2544,0,2.266,2.2659,2.2639,2.2623,2.2606,2.2627,2.2615,2.2599,2.2573,2.2564,2.2545,2.2515,2.2492,2.2491,2.2469,2.245,2.2457,2.2443,2.2444,2.2442,2.2523,2.2533,2.2438,2.2438,2.2438,2.2438,2.2438,2.2438,2.2605,2.2567,2.2573,2.2531,2.253,2.2502,2.2494,2.2483,2.2476,2.2442,2.2424,2.2425,2.2418,2.2396,2.2375,2.2376,2.2366,2.2348,2.2352,2.2426,2.2437,2.2447,2.2457,2.2347,2.2346,2.2273,2.2273,2.2272]}]]